Flag for Germany Weather past 2 weeks in Beckum, North Rhine-Westphalia, Germany

Now
84 °F

Sunny.


Feels Like: 84 °F
Forecast: 66 / 89 °F
Wind: 2 mph from North

Location: Dortmund / Wickede

Current Time: Jul 4, 2015 at 9:47:45 PM

Latest Report: Jul 4, 2015 at 9:20 PM


Visibility: 10 mi

Pressure: 30.07 "Hg

Humidity: 43%

Dew point: 59 °F

Location of BeckumLocation

Historic Weather in Beckum — Graph

°F

Beckum temperature yesterday

Maximum temperature yesterday: 88 °F (at 2:50 PM)
Minimum temperature yesterday: 64 °F (at 5:50 AM)
Average temperature yesterday: 80 °F

Past Weeks' High & Low Weather Summary

 TemperatureHumidityPressure
High97 °F (Jul 2, 2:50 PM)94% (Jun 20, 6:20 AM)30.24 "Hg (Jun 20, 6:20 AM)
Low48 °F (Jun 20, 6:20 AM)22% (Jul 2, 3:20 PM)29.68 "Hg (Jun 22, 7:50 PM)
Average68 °F59%30.07 "Hg
* Reported Jun 19 8:20 PM — Jul 4 8:20 PM, Beckum, Weather by CustomWeather, © 2015

Note: Actual official high and low records may vary slightly from our data, if they occured in-between our weather recording intervals... More about our weather records

Advertising

Beckum weather history for previous 24 hours

 ConditionsComfort  
Time TempWeatherWind HumidityBarometerVisibility
8:20 PM
Sat, Jul 4
88 °FSunny.3 mph33%30.07 "Hg10 mi
7:50 PM91 °FPassing clouds.6 mph30%30.07 "HgN/A
7:20 PM93 °FPassing clouds.7 mph28%30.07 "HgN/A
6:50 PM93 °FSunny.6 mph28%30.07 "Hg10 mi
6:20 PM93 °FSunny.9 mph24%30.07 "Hg10 mi
5:50 PM95 °FSunny.8 mph26%30.07 "Hg10 mi
5:20 PM95 °FSunny.8 mph28%30.07 "Hg10 mi
4:50 PM95 °FSunny.8 mph28%30.07 "Hg10 mi
4:20 PM95 °FSunny.12 mph32%30.07 "Hg10 mi
3:50 PM95 °FSunny.9 mph32%30.07 "Hg10 mi
3:20 PM93 °FSunny.10 mph30%30.07 "Hg10 mi
2:50 PM95 °FSunny.10 mph30%30.07 "Hg10 mi
2:20 PM93 °FSunny.9 mph32%30.07 "Hg10 mi
1:50 PM93 °FPassing clouds.10 mph32%30.07 "HgN/A
1:20 PM93 °FPassing clouds.12 mph30%30.07 "HgN/A
12:50 PM93 °FPassing clouds.13 mph32%30.07 "HgN/A
12:20 PM93 °FPassing clouds.14 mph30%30.07 "HgN/A
11:50 AM91 °FPassing clouds.10 mph34%30.07 "HgN/A
11:20 AM91 °FPassing clouds.10 mph34%30.07 "HgN/A
10:50 AM90 °FPassing clouds.9 mph38%30.07 "HgN/A
10:20 AM90 °FPassing clouds.6 mph33%30.07 "HgN/A
9:50 AM90 °FPassing clouds.5 mph41%30.07 "HgN/A
9:20 AM86 °FPassing clouds.6 mph49%30.07 "HgN/A
8:50 AM82 °FPassing clouds.5 mph55%30.07 "HgN/A
8:20 AM79 °FSunny.5 mph61%30.07 "Hg10 mi
7:50 AM77 °FSunny.3 mph65%30.07 "Hg10 mi
7:20 AM73 °FSunny.3 mph78%30.07 "Hg10 mi
6:50 AM73 °FSunny.2 mph74%30.09 "Hg10 mi
6:20 AM72 °FSunny.3 mph78%30.09 "Hg10 mi
5:50 AM70 °FClear.5 mph78%30.09 "Hg10 mi
5:20 AM70 °FClear.3 mph78%30.09 "Hg10 mi
10:50 PM
Fri, Jul 3
77 °FClear.3 mph61%30.18 "Hg10 mi
10:20 PM77 °FSunny.6 mph61%30.18 "Hg10 mi
9:50 PM79 °FSunny.6 mph58%30.18 "Hg10 mi
9:20 PM81 °FSunny.7 mph54%30.18 "Hg10 mi
Weather by CustomWeather, © 2015

See weather overviewHow to use our weather pages